Regional Weather Roundup
Issued by NWS

Home | Current Version | Previous Version | Text Only | Print | Product List | Glossary Off
Versions: 1 2 3 4 5 6 7 8 9 10 11 12 13 14 15 16 17 18 19 20 21 22 23 24 25 26 27 28 29 30 31 32 33 34 35 36 37 38 39 40 41 42 43 44 45 46 47 48 49 50

000
ASUS43 KFSD 281210
RWRSD

WEATHER ROUNDUP FOR SOUTH DAKOTA
NATIONAL WEATHER SERVICE SIOUX FALLS SD
600 AM CST SUN DEC 28 2014

NOTE: "FAIR" INDICATES FEW OR NO CLOUDS BELOW 12,000 FEET WITH NO
SIGNIFICANT WEATHER AND/OR OBSTRUCTIONS TO VISIBILITY.


SDZ001>005-009-010-012>017-281300-
NORTHWEST AND NORTH CENTRAL SOUTH DAKOTA

CITY           SKY/WX    TMP DP  RH WIND       PRES   REMARKS
BUFFALO          N/A     16   9  74 E6        29.83F WCI   7
FAITH            N/A     17  10  74 SW3       29.96S
MOBRIDGE       MOCLDY    12   8  84 E7        30.01S WCI   1
$$

SDZ012>016-024>037-041>051-057-063-072>074-281300-
SOUTHWEST AND SOUTH CENTRAL SOUTH DAKOTA

CITY           SKY/WX    TMP DP  RH WIND       PRES   REMARKS
RAPID CTY ARPT PTCLDY    11   4  73 CALM      29.93F
PIERRE         CLEAR      4   2  91 NE5       30.03S WCI  -5
CUSTER         MOCLDY     9   2  73 W3        29.83F
ELLSWORTH AFB  MOCLDY    15   5  66 W5        29.91F WCI   7
PHILIP         PTCLDY     6   3  87 CALM      30.01S
PINE RIDGE     PTCLDY     2  -4  76 CALM      29.95F
SPEARFISH      FAIR      16   7  67 S6        29.88F WCI   7
WINNER         FAIR      13   5  70 S7        30.03S WCI   3
$$

SDZ004>011-016>023-039-040-281300-
NORTHEAST SOUTH DAKOTA

CITY           SKY/WX    TMP DP  RH WIND       PRES   REMARKS
ABERDEEN       CLOUDY    14  11  87 NW6       30.09R WCI   5
WATERTOWN      CLOUDY     5   2  87 CALM      30.05R
SISSETON         N/A     18  16  92 N14       30.10R WCI   4
$$

SDZ017-020-022-023-036>040-048>070-281300-
SOUTHEAST SOUTH DAKOTA

CITY           SKY/WX    TMP DP  RH WIND       PRES   REMARKS
SIOUX FALLS    MOCLDY     0  -4  83 CALM      30.09R
HURON          CLEAR      1  -3  83 CALM      30.09S
CHAMBERLAIN    CLEAR      6   3  87 W6        30.05F WCI  -4
MITCHELL       PTCLDY     4   2  91 CALM      30.10R
YANKTON          N/A      9   9 100 CALM      30.11S VSB 1/2
$$

ABBREVIATIONS USED IN REMARKS
   TC - TEMPERATURE IN CELSIUS
  WCI - WIND CHILL INDEX
   HX - HEAT INDEX
  VSB - VISIBILITY



USA.gov is the U.S. government's official web portal to all federal, state and local government web resources and services.